GW6354 Weather Reports


time (UTC)temp
F
wind
direction
speed
knots
gust
knots
rain 1hr
in
rain 24hr
in
rain mn
in
humidity
%
barometer
mb
20260504214520 56 188 0.9 0.9 0.00 0.07 0.07 72 1016.9
20260504213523 56 126 0.9 1.7 0.00 0.07 0.07 72 1016.8
20260504212515 57 170 1.7 1.7 0.00 0.07 0.07 69 1016.7
20260504211517 56 190 0.9 1.7 0.00 0.07 0.07 70 1016.7
20260504210519 57 134 0.9 0.9 0.00 0.07 0.07 68 1016.9
20260504205522 57 171 1.7 1.7 0.00 0.07 0.07 69 1016.9
20260504204524 57 163 1.7 1.7 0.00 0.07 0.07 69 1016.9
20260504203517 58 238 0.9 1.7 0.00 0.07 0.07 64 1016.8
20260504202519 58 273 1.7 1.7 0.00 0.07 0.07 66 1016.9
20260504201522 58 249 0.9 0.9 0.00 0.07 0.07 68 1016.9
20260504200524 60 294 1.7 1.7 0.00 0.07 0.07 65 1016.8
20260504195516 60 272 0.9 0.9 0.00 0.07 0.07 64 1016.7
20260504194519 60 208 3.5 3.5 0.00 0.07 0.07 64 1016.7
20260504193521 61 191 2.6 3.5 0.00 0.07 0.07 60 1016.7
20260504192523 61 161 2.6 2.6 0.00 0.07 0.07 60 1016.6
20260504191516 61 179 1.7 1.7 0.00 0.07 0.07 60 1016.5
20260504190538 64 303 2.6 2.6 0.00 0.07 0.07 54 1016.4
20260504185521 64 308 3.5 4.3 0.01 0.07 0.07 55 1016.3
20260504184524 64 271 4.3 4.3 0.01 0.07 0.07 53 1016.3
20260504183535 63 209 4.3 4.3 0.01 0.07 0.07 54 1016.3
20260504182517 66 204 4.3 5.2 0.01 0.07 0.07 50 1016.1
20260504181520 66 212 5.2 5.2 0.01 0.07 0.07 50 1016.1
20260504180522 66 210 5.2 5.2 0.01 0.07 0.07 49 1016.0
20260504175515 67 209 4.3 5.2 0.00 0.06 0.06 46 1015.9
20260504174517 68 209 5.2 7.0 0.00 0.06 0.06 48 1015.9
20260504173520 68 221 3.5 3.5 0.00 0.06 0.06 51 1015.9
20260504172522 69 212 1.7 2.6 0.00 0.06 0.06 50 1015.9
20260504171544 68 225 1.7 1.7 0.00 0.06 0.06 49 1015.9
20260504170517 68 215 3.5 4.3 0.01 0.06 0.06 49 1016.0
20260504150556 71 200 9.6 13.0 0.00 0.04 0.03 42 1016.2
20260504140521 72 202 10.4 13.0 0.00 0.05 0.03 39 1016.5
20260504130516 74 230 11.3 13.9 0.01 0.05 0.03 38 1016.9
20260504110522 74 245 7.0 10.4 0.00 0.05 0.02 31 1017.4
20260504100602 74 212 7.8 9.6 0.00 0.05 0.02 29 1017.8
20260504081521 70 126 2.6 3.5 0.01 0.05 0.02 43 1017.9
20260504080523 69 159 1.7 3.5 0.01 0.05 0.02 43 1017.9
20260504050519 47 149 2.6 2.6 0.00 0.05 0.01 84 1017.4
20260504045521 46 135 2.6 2.6 0.01 0.05 0.01 84 1017.2
20260504044524 46 125 2.6 2.6 0.01 0.05 0.01 84 1017.2
20260504043517 45 123 4.3 4.3 0.01 0.05 0.01 86 1017.1
20260504042520 45 137 4.3 4.3 0.01 0.05 0.01 87 1017.1
20260504041522 45 139 4.3 4.3 0.01 0.05 0.01 86 1017.0
20260504040515 45 132 3.5 4.3 0.01 0.05 0.01 86 1017.1
20260504035517 45 118 3.5 3.5 0.00 0.05 0.00 85 1017.1
20260504034520 46 133 3.5 4.3 0.00 0.05 0.00 84 1017.1
20260504033523 46 135 2.6 2.6 0.00 0.05 0.00 84 1017.1
20260504032515 46 125 2.6 2.6 0.00 0.05 0.00 84 1017.1
20260504031518 46 102 1.7 2.6 0.00 0.05 0.00 84 1017.1
20260504030521 46 130 2.6 3.5 0.00 0.05 0.00 82 1017.1
20260504025543 47 136 2.6 2.6 0.00 0.05 0.00 82 1017.1
20260504024516 47 113 2.6 3.5 0.00 0.05 0.00 82 1017.3
20260504023519 47 108 2.6 3.5 0.00 0.05 0.00 81 1017.3
20260504022521 47 122 2.6 3.5 0.00 0.05 0.00 81 1017.4
20260504021544 47 123 3.5 4.3 0.00 0.05 0.00 79 1017.4
20260504020557 48 141 4.3 5.2 0.00 0.05 0.00 80 1017.4
20260504015519 48 137 3.5 3.5 0.00 0.05 0.00 80 1017.4
20260504014522 48 88 2.6 2.6 0.00 0.05 0.00 79 1017.4
20260504013525 48 117 2.6 2.6 0.00 0.05 0.00 79 1017.4
20260504012517 47 97 0.9 1.7 0.00 0.05 0.00 80 1017.5
20260504011520 47 125 1.7 1.7 0.00 0.05 0.00 80 1017.5
20260504010523 47 137 2.6 2.6 0.00 0.05 0.00 80 1017.4
20260504005515 48 141 4.3 5.2 0.00 0.05 0.00 79 1017.4
20260504004518 48 107 2.6 3.5 0.00 0.05 0.00 79 1017.4
20260504003521 49 137 1.7 2.6 0.00 0.05 0.00 76 1017.5
20260504002523 49 55 1.7 1.7 0.00 0.05 0.00 78 1017.5
20260504001516 48 102 0.9 1.7 0.00 0.05 0.00 80 1017.5
20260504000519 48 123 3.5 3.5 0.00 0.05 0.00 79 1017.5
20260503235521 49 127 4.3 5.2 0.00 0.05 0.00 78 1017.5
20260503234605 49 133 4.3 4.3 0.00 0.05 0.00 76 1017.5
20260503233517 50 137 4.3 4.3 0.00 0.05 0.00 75 1017.6
20260503232519 50 149 2.6 2.6 0.00 0.05 0.00 75 1017.7
20260503231522 50 146 1.7 1.7 0.00 0.05 0.00 77 1017.6
20260503230515 50 109 2.6 2.6 0.00 0.05 0.00 74 1017.5
20260503225518 50 118 2.6 2.6 0.00 0.05 0.00 75 1017.5
20260503224521 50 122 2.6 3.5 0.00 0.05 0.00 74 1017.5
20260503223523 50 145 2.6 2.6 0.00 0.05 0.00 75 1017.5
20260503222535 50 166 1.7 2.6 0.00 0.05 0.00 76 1017.5
20260503221518 51 136 2.6 2.6 0.00 0.05 0.00 71 1017.4
20260503220521 52 95 3.5 4.3 0.00 0.05 0.00 70 1017.4
20260503215523 52 79 2.6 2.6 0.00 0.05 0.05 69 1017.3